User: anonymous   Login
Location: *
(47.7167°N, 1.7333°W)
Time: 14:42:31
(UTC+00:00)
Language:

COSMOS 2406 - Orbit

View from above orbital plane
View from above orbital plane
View from above satellite
View from above satellite

Ground track
Ground track

The orbit data is extracted from the following two-line orbital elements,

1 28352U 04021A   21164.12397144  .00000246  00000-0  16064-3 0  9994
2 28352  71.0053 322.3698 0012022  49.2231 310.9931 14.11705292876457
Epoch (UTC): 13 June 2021 02:58:31
Eccentricity: 0.0012022
inclination: 71.0053°
perigee height: 845 km
apogee height: 862 km
right ascension of ascending node: 322.3698°
argument of perigee: 49.2231°
revolutions per day: 14.11705292
mean anomaly at epoch: 310.9931°
orbit number at epoch: 87645

The dashed part of the orbit path shows where the satellite is in the earth's shadow,  

DLR